This demonstration page uses our WeatherBlox Daily Observations layout. Learn more.

Left ArrowRight Arrow

39.08367, -84.50855

Hourly Observations for April 13, 2020

Temp ( °F °C ) Dew Point ( °F °C ) Humidity (%) Winds ( mph kmh ) Pressure ( in mb ) Visibility ( mi km ) Precip ( " mm )
3:40 am 03:40 Cloudy with Thunderstorms 59 15 57 13.9 93 93 SW 10 17 29.41 996 6 10 0.03 0.76
3:49 am 03:49 Cloudy with Rain 59 15 57 14 94 94 SSW 12 19 29.40 996 4 6 0.05 1.27
3:53 am 03:53 Cloudy with Light Rain 59 15 58 14.4 96 96 SW 13 20 29.39 995 5 8 0.06 1.52
4:00 am 04:00 Cloudy with Nearby Thunderstorms 59 15 58 14.4 96 96 WSW 9 15 29.41 996 9 14 0.00 0.00
4:12 am 04:12 Cloudy with Rain 60 15.6 58 14.4 93 93 SW 10 17 29.40 995 8 13 0.02 0.51
4:53 am 04:53 Cloudy with Heavy Rain 60 15.6 59 15 96 96 SSW 6 9 29.35 994 4 6 0.19 4.83
5:50 am 05:50 Cloudy with Light Rain 57 14 57 14 100 100 SSW 5 7 29.36 994 6 10 0.07 1.78
5:53 am 05:53 Cloudy with Light Rain 58 14.4 58 14.4 100 100 SSW 5 7 29.36 994 8 13 0.07 1.78
6:53 am 06:53 Cloudy with Light Rain 59 15 56 13.3 90 90 WNW 15 24 29.39 995 10 16 0.01 0.25
7:53 am 07:53 Cloudy 57 13.9 54 12.2 90 90 W 12 19 29.46 998 10 16 0.01 0.25
8:53 am 08:53 Cloudy 57 13.9 53 11.7 87 87 W 25 41 29.53 1000 10 16 0.00 0.00
9:53 am 09:53 Cloudy 49 9.4 42 5.6 77 77 W 28 44 29.65 1004 10 16 0.00 0.00
10:53 am 10:53 Cloudy 45 7.2 37 2.8 74 74 W 24 39 29.75 1008 10 16 0.00 0.00
11:53 am 11:53 Cloudy 43 6.1 36 2.2 76 76 W 26 43 29.85 1011 10 16 0.00 0.00
12:53 pm 12:53 Cloudy 43 6.1 35 1.7 74 74 W 15 24 29.90 1013 10 16 0.00 0.00
1:53 pm 13:53 Cloudy 43 6.1 34 1.1 71 71 W 22 35 29.95 1014 10 16 0.00 0.00
2:53 pm 14:53 Cloudy 44 6.7 33 0.6 65 65 WNW 16 26 29.99 1016 10 16 0.00 0.00
3:53 pm 15:53 Cloudy 45 7.2 33 0.6 63 63 W 15 24 30.03 1017 10 16 0.00 0.00
4:53 pm 16:53 Mostly Cloudy 46 7.8 32 0 58 58 W 12 19 30.04 1017 10 16 0.00 0.00
5:53 pm 17:53 Mostly Cloudy 46 7.8 30 -1.1 54 54 WNW 8 13 30.07 1018 10 16 0.00 0.00
6:53 pm 18:53 Mostly Cloudy 46 7.8 29 -1.7 51 51 W 10 17 30.10 1019 10 16 0.00 0.00
7:53 pm 19:53 Mostly Cloudy 45 7.2 28 -2.2 52 52 WNW 8 13 30.11 1020 10 16 0.00 0.00
8:53 pm 20:53 Cloudy 42 5.6 30 -1.1 62 62 SW 5 7 30.14 1021 10 16 0.00 0.00
9:53 pm 21:53 Cloudy 41 5 33 0.6 73 73 S 5 7 30.16 1022 10 16 0.00 0.00
10:53 pm 22:53 Cloudy 41 5 36 2.2 82 82 SSW 3 6 30.19 1022 10 16 0.00 0.00
11:53 pm 23:53 Mostly Cloudy 42 5.6 37 2.8 82 82 Calm 30.19 1022 10 16 0.00 0.00

Powered by AerisWeather